This is the latest recevied weather packets stored in our database for station/object KB3KBR-WX. If no packets are shown the sender has not sent any weather packets the latest 1 day(s).
| Time | Temp. | Humidity | Pressure | Rain* | Wind** | Luminosity | Snow |
|---|---|---|---|---|---|---|---|
| 1778009819 | 20.56° C | 58% | 1004.6 hPa | 0 mm | 2.68 m/s, 167° | - | - |
| 1778009520 | 21.11° C | 57% | 1004.6 hPa | 0 mm | 2.24 m/s, 171° | - | - |
| 1778009190 | 21.11° C | 57% | 1004.5 hPa | 0 mm | 2.24 m/s, 180° | - | - |
| 1778008589 | 20.56° C | 59% | 1004.7 hPa | 0 mm | 1.34 m/s, 176° | - | - |
| 1778008259 | 20° C | 59% | 1004.7 hPa | 0 mm | 1.34 m/s, 151° | - | - |
| 1778007936 | 20° C | 59% | 1004.6 hPa | 0 mm | 1.34 m/s, 159° | - | - |
| 1778007629 | 20° C | 58% | 1004.5 hPa | 0 mm | 0.89 m/s, 169° | - | - |
| 1778007329 | 20.56° C | 58% | 1004.7 hPa | 0 mm | 0.89 m/s, 155° | - | - |
| 1778006999 | 20.56° C | 57% | 1004.6 hPa | 0 mm | 0.89 m/s, 160° | - | - |
| 1778006699 | 20.56° C | 57% | 1004.6 hPa | 0 mm | 0.89 m/s, 158° | - | - |
| 1778006369 | 20.56° C | 56% | 1004.5 hPa | 0 mm | 0.89 m/s, 172° | - | - |
| 1778006042 | 20.56° C | 56% | 1004.4 hPa | 0 mm | 1.34 m/s, 179° | - | - |
| 1778006039 | 20.56° C | 56% | 1004.4 hPa | 0 mm | 1.34 m/s, 179° | - | - |
| 1778005709 | 20.56° C | 55% | 1004.5 hPa | 0 mm | 1.34 m/s, 175° | - | - |
| 1778005380 | 21.11° C | 55% | 1004.4 hPa | 0 mm | 1.34 m/s, 167° | - | - |
| 1778005079 | 21.11° C | 54% | 1004.4 hPa | 0 mm | 1.79 m/s, 171° | - | - |
| 1778004749 | 21.11° C | 53% | 1004.3 hPa | 0 mm | 1.34 m/s, 165° | - | - |
| 1778004449 | 21.11° C | 55% | 1004.3 hPa | 0 mm | 1.34 m/s, 159° | - | - |
| 1778004119 | 21.67° C | 53% | 1004.3 hPa | 0 mm | 2.24 m/s, 171° | - | - |
| 1778003819 | 21.67° C | 52% | 1004.5 hPa | 0 mm | 1.79 m/s, 178° | - | - |
| 1778003489 | 21.67° C | 53% | 1004.1 hPa | 0 mm | 2.24 m/s, 182° | - | - |
| 1778003190 | 21.67° C | 54% | 1004.3 hPa | 0 mm | 2.24 m/s, 176° | - | - |
| 1778002889 | 21.11° C | 56% | 1004.3 hPa | 0 mm | 2.24 m/s, 165° | - | - |
| 1778002262 | 21.11° C | 56% | 1004.4 hPa | 0 mm | 1.79 m/s, 174° | - | - |
| 1778002259 | 21.11° C | 56% | 1004.4 hPa | 0 mm | 1.79 m/s, 174° | - | - |
* Rain latest hour (hover to see other rain measurements)
** Current wind speed in m/s (hover to see current wind gust speed)